User: anonymous   Login
Location: Castro Valley
(37.6940°N, 122.0850°W)
Time: 21:46:24
(UTC-08:00)
Language:

PANSAT - Orbit

View from above orbital plane
View from above orbital plane
View from above satellite
View from above satellite

Ground track
Ground track

The orbit data is extracted from the following two-line orbital elements,

1 25520U 98064B   14326.19401304  .00005647  00000-0  21428-3 0  6213
2 25520 028.4578 240.5991 0004519 046.7463 074.4904 15.24579263890761
Epoch (UTC): 22 November 2014 04:39:22
Eccentricity: 0.0004519
inclination: 28.4578°
perigee height: 489 km
apogee height: 495 km
right ascension of ascending node: 240.5991°
argument of perigee: 46.7463°
revolutions per day: 15.24579263
mean anomaly at epoch: 74.4904°
orbit number at epoch: 89076

The dashed part of the orbit path shows where the satellite is in the earth's shadow,  

DLR